Regional Weather Roundup
Issued by NWS

Home | Current Version | Previous Version | Text Only | Print | Product List | Glossary On
Versions: 1 2 3 4 5 6 7 8 9 10 11 12 13 14 15 16 17 18 19 20 21 22 23 24 25 26 27 28 29 30 31 32 33 34 35 36 37 38 39 40 41 42 43 44 45 46 47 48 49 50
000
ASCA44 KEWX 300620
RWRMX

LATIN AMERICA AND CARIBBEAN REGIONAL WEATHER ROUNDUP
NATIONAL WEATHER SERVICE AUSTIN/SAN ANTONIO TX
100 AM CDT MON MAY 30 2016

NOTE: "FAIR" INDICATED FEW OR NO CLOUDS BELOW 12,000 FEET WITH NO
SIGNIFICANT WEATHER AND/OR OBSTRUCTIONS TO VISIBILITY.

BAJA CALIFORNIA

CITY           SKY/WX    TMP DP  RH WIND       PRES   REMARKS
LA PAZ           N/A    N/A N/A N/A MISG        N/A
MEXICALI       CLEAR     73  37  27 S3        29.83R
S.J. DEL CABO  CLEAR     84  57  39 NW5       29.91S
TIJUANA        CLOUDY    61  52  72 W7        30.03S

NORTHWESTERN MEXICO

CITY           SKY/WX    TMP DP  RH WIND       PRES   REMARKS
HERMOSILLO     CLEAR     81  45  28 CALM      29.92S

NORTHEASTERN MEXICO

CITY           SKY/WX    TMP DP  RH WIND       PRES   REMARKS
MONCLOVA         N/A    N/A N/A N/A MISG        N/A
MONTERREY      CLOUDY    75  68  78 E6        29.98F
REYNOSA          N/A    N/A N/A N/A MISG        N/A
CD. VICTORIA     N/A    N/A N/A N/A MISG        N/A

WESTERN MEXICO

CITY           SKY/WX    TMP DP  RH WIND       PRES   REMARKS
AGUASCALIENTES   N/A    N/A N/A N/A MISG        N/A
COLIMA           N/A    N/A N/A N/A MISG        N/A
DEL BAJIO      PTCLDY    70  59  68 E7        30.31S
GUADALAJARA    CLEAR     73  50  43 SW5       30.19R
MAZATLAN       PTCLDY    75  72  88 CALM      29.92R
P. VALLARTA    CLEAR     77  73  88 CALM      29.94R
URUAPAN          N/A    N/A N/A N/A MISG        N/A
ZACATECAS      CLEAR     66  52  59 SE24      30.31R

CENTRAL MEXICO

CITY           SKY/WX    TMP DP  RH WIND       PRES   REMARKS
CUERNAVACA       N/A    N/A N/A N/A MISG        N/A
MEXICO CITY    PTCLDY    64  52  63 NW3       30.41S
MORELIA        CLEAR     66  57  72 CALM      30.27R
POZA RICA        N/A    N/A N/A N/A MISG        N/A
QUERETARO      PTCLDY    66  59  77 E14       30.35
S. LUIS POTOSI MOCLDY    66  55  68 S8        30.31S
TOLUCA         PTCLDY    57  52  82 SE5       30.47F

SOUTHERN MEXICO

CITY           SKY/WX    TMP DP  RH WIND       PRES   REMARKS
ACAPULCO       PTCLDY    81  75  83 W3        29.92R
B. DE HUATULCO   N/A    N/A N/A N/A MISG        N/A
P. ESCONDIDO     N/A    N/A N/A N/A MISG        N/A
VERACRUZ         N/A    N/A N/A N/A MISG        N/A

YUCATAN PENINSULA

CITY           SKY/WX    TMP DP  RH WIND       PRES   REMARKS
CAMPECHE         N/A    N/A N/A N/A MISG        N/A
CANCUN         PTCLDY    82  75  78 E9        29.98F
CHETUMAL         N/A    N/A N/A N/A MISG        N/A
CD. DEL CARMEN   N/A    N/A N/A N/A MISG        N/A
COZUMEL        PTCLDY    75  73  94 SE3       29.98F
MERIDA         PTCLDY    82  75  78 E7        29.97F
MINATITLAN       N/A    N/A N/A N/A MISG        N/A
TAPACHULA        N/A    N/A N/A N/A MISG        N/A

CENTRAL AMERICA

CITY           SKY/WX    TMP DP  RH WIND       PRES   REMARKS

CARIBBEAN

CITY           SKY/WX    TMP DP  RH WIND       PRES   REMARKS
ARUBA          PTCLDY    82  75  78 E16       29.86F
CURACAO        PTCLDY    82  77  83 E17       29.89F HX  91
KINGSTON       PTCLDY    79  75  89 SE14      29.89F
NASSAU         PTCLDY    77  75  94 CALM      30.02F
SAN JUAN       PTCLDY    77  75  94 CALM      29.97F
SANTO DOMINGO  PTCLDY    73  70  88 N5        29.94F
ST. CROIX      PTCLDY    79  75  89 NE5       29.98
ST. THOMAS     CLEAR     82  75  78 E8        29.96

$$





USA.gov is the U.S. government's official web portal to all federal, state and local government web resources and services.